Location: Unspecified
(0.0000°N, 0.0000°E)
Time: 06:07:48
(UTC+00:00)

Tiros 1 - Pass Details

Date: 08 October 2020
Orbit: 630 x 663 km, 48.4° (Epoch: 28 October)

Event Time Altitude Azimuth Distance (km) Brightness Sun altitude
Rises 08:53:54 0° 249° (WSW) 2,909 10.1 46.3°
Reaches altitude 10° 08:56:54 10° 269° (W) 1,999 9.4 47.0°
Maximum altitude 08:59:55 17° 310° (NW) 1,578 9.0 47.8°
Drops below altitude 10° 09:02:56 10° 351° (N) 1,998 9.7 48.5°
Sets 09:05:57 0° 11° (N) 2,906 10.5 49.2°
